METAR Formatted Surface Weather Observation
Issued by NWS

Home | Current Version | Previous Version | Text Only | Print | Product List | Glossary On
Versions: 1 2 3 4 5 6 7 8 9 10 11 12 13 14 15 16 17 18 19 20 21 22 23 24 25 26 27 28 29 30 31 32 33 34 35 36 37 38 39 40 41 42 43 44 45 46 47 48 49 50
215
SAUS41 KAKQ 071757
MTRNFE
METAR KNFE 071756Z AUTO 02018G22KT 10SM OVC042 08/01 A2991 RMK AO2
PK WND 36027/1736 SLP131 T00830006 10083 20050 58054 $



USA.gov is the U.S. government's official web portal to all federal, state and local government web resources and services.